TimeCDT,TemperatureF,Dew PointF,Humidity,Sea Level PressureIn,VisibilityMPH,Wind Direction,Wind SpeedMPH,Gust SpeedMPH,PrecipitationIn,Events,Conditions,WindDirDegrees,DateUTC
12:54 AM,55.0,51.1,86,29.95,8.0,WNW,5.8,-,N/A,,Clear,300,2013-09-21 05:54:00
1:54 AM,54.0,51.1,90,29.96,8.0,WNW,5.8,-,N/A,,Clear,290,2013-09-21 06:54:00
2:54 AM,53.1,50.0,89,29.94,9.0,WNW,4.6,-,N/A,,Clear,300,2013-09-21 07:54:00
3:54 AM,52.0,50.0,93,29.95,8.0,WNW,5.8,-,N/A,,Clear,300,2013-09-21 08:54:00
4:54 AM,52.0,48.9,89,29.95,10.0,NW,8.1,-,N/A,,Clear,320,2013-09-21 09:54:00
5:54 AM,50.0,48.0,93,29.97,10.0,NNW,6.9,-,N/A,,Clear,330,2013-09-21 10:54:00
6:54 AM,48.0,46.0,93,29.99,10.0,NNW,5.8,-,N/A,,Clear,340,2013-09-21 11:54:00
7:54 AM,52.0,48.0,86,29.99,10.0,North,8.1,-,N/A,,Clear,360,2013-09-21 12:54:00
8:54 AM,57.0,48.9,74,30.01,10.0,North,9.2,-,N/A,,Clear,350,2013-09-21 13:54:00
9:54 AM,60.1,46.0,60,30.02,10.0,North,15.0,-,N/A,,Clear,350,2013-09-21 14:54:00
10:54 AM,64.0,45.0,50,30.03,10.0,North,9.2,-,N/A,,Clear,10,2013-09-21 15:54:00
11:54 AM,66.9,45.0,45,30.01,10.0,NNW,9.2,-,N/A,,Clear,340,2013-09-21 16:54:00
12:54 PM,68.0,44.1,42,30.00,10.0,NW,10.4,16.1,N/A,,Clear,310,2013-09-21 17:54:00
1:54 PM,70.0,46.0,42,29.98,10.0,North,5.8,-,N/A,,Clear,10,2013-09-21 18:54:00
2:54 PM,72.0,45.0,38,29.96,10.0,North,9.2,-,N/A,,Clear,360,2013-09-21 19:54:00
3:54 PM,72.0,45.0,38,29.95,10.0,NW,5.8,-,N/A,,Clear,310,2013-09-21 20:54:00
4:54 PM,73.0,46.0,38,29.94,10.0,NW,9.2,-,N/A,,Clear,320,2013-09-21 21:54:00
5:54 PM,71.1,46.0,41,29.93,10.0,North,5.8,-,N/A,,Clear,350,2013-09-21 22:54:00
6:54 PM,68.0,45.0,43,29.93,10.0,Calm,Calm,-,N/A,,Clear,0,2013-09-21 23:54:00
7:54 PM,64.0,46.9,54,29.93,10.0,Calm,Calm,-,N/A,,Clear,0,2013-09-22 00:54:00
8:54 PM,63.0,46.0,54,29.94,10.0,Calm,Calm,-,N/A,,Clear,0,2013-09-22 01:54:00
9:54 PM,60.1,46.9,62,29.95,6.0,Calm,Calm,-,N/A,,Haze,0,2013-09-22 02:54:00
10:54 PM,57.0,48.0,72,29.95,10.0,Calm,Calm,-,N/A,,Clear,0,2013-09-22 03:54:00
11:54 PM,60.1,44.1,55,29.95,10.0,East,3.5,-,N/A,,Clear,80,2013-09-22 04:54:00